Lake Cypress Springs Weather Center

Moon Phase Calendar



Lake Cypress Springs Water Level
Online Cameras

 


      

Current Conditions in Mount Vernon
10/27/2020 10:55:55 AM

50°F
Feels Like 47
Clouds
Humidity
100%
Pressure
30.15"
Wind
5.8 mph (NNE)
Dew Point
50°F
UV Index
5/10 (Moderate)
Visibility
1 mi

Hourly Forecast

Date & Time Tue, Oct 27
10:00 AM
Tue, Oct 27
11:00 AM
Tue, Oct 27
12:00 PM
Tue, Oct 27
1:00 PM
Tue, Oct 27
2:00 PM
Tue, Oct 27
3:00 PM
Tue, Oct 27
4:00 PM
Tue, Oct 27
5:00 PM
Tue, Oct 27
6:00 PM
Tue, Oct 27
7:00 PM
Tue, Oct 27
8:00 PM
Tue, Oct 27
9:00 PM
Tue, Oct 27
10:00 PM
Tue, Oct 27
11:00 PM
Wed, Oct 28
12:00 AM
Wed, Oct 28
1:00 AM
Wed, Oct 28
2:00 AM
Wed, Oct 28
3:00 AM
Wed, Oct 28
4:00 AM
Wed, Oct 28
5:00 AM
Wed, Oct 28
6:00 AM
Wed, Oct 28
7:00 AM
Wed, Oct 28
8:00 AM
Wed, Oct 28
9:00 AM
Wed, Oct 28
10:00 AM
Wed, Oct 28
11:00 AM
Wed, Oct 28
12:00 PM
Wed, Oct 28
1:00 PM
Wed, Oct 28
2:00 PM
Wed, Oct 28
3:00 PM
Wed, Oct 28
4:00 PM
Wed, Oct 28
5:00 PM
Wed, Oct 28
6:00 PM
Wed, Oct 28
7:00 PM
Wed, Oct 28
8:00 PM
Wed, Oct 28
9:00 PM
Wed, Oct 28
10:00 PM
Wed, Oct 28
11:00 PM
Thu, Oct 29
12:00 AM
Thu, Oct 29
1:00 AM
Thu, Oct 29
2:00 AM
Thu, Oct 29
3:00 AM
Thu, Oct 29
4:00 AM
Thu, Oct 29
5:00 AM
Thu, Oct 29
6:00 AM
Thu, Oct 29
7:00 AM
Thu, Oct 29
8:00 AM
Thu, Oct 29
9:00 AM
Condition
Rain

Clouds

Clouds

Clouds

Clouds

Clouds

Clouds

Clouds

Clouds

Clouds

Clouds

Clouds

Clouds

Clouds

Clouds

Clouds

Clouds

Rain

Rain

Rain

Rain

Rain

Rain

Rain

Rain

Rain

Rain

Rain

Rain

Rain

Rain

Rain

Rain

Rain

Rain

Clouds

Rain

Clouds

Clouds

Clouds

Clouds

Clouds

Clouds

Clouds

Clouds

Clouds

Clouds

Clouds
Temperature 50°F51°F53°F54°F56°F59°F61°F61°F60°F59°F58°F57°F56°F56°F55°F55°F54°F54°F54°F54°F54°F55°F54°F55°F56°F57°F57°F58°F58°F60°F60°F60°F59°F59°F59°F59°F58°F55°F53°F51°F51°F49°F50°F51°F51°F51°F51°F52°F
Feels Like 46°F47°F48°F51°F53°F55°F58°F59°F58°F56°F55°F53°F51°F50°F50°F49°F49°F48°F47°F48°F49°F50°F49°F50°F52°F53°F54°F56°F56°F58°F60°F60°F61°F61°F61°F59°F53°F47°F42°F40°F42°F38°F38°F39°F39°F39°F39°F40°F
Cloudiness 90%95%98%99%99%96%87%85%85%86%90%88%86%88%89%91%100%100%100%96%96%97%100%100%100%100%100%100%100%100%100%100%100%100%100%100%100%100%100%100%99%58%69%77%81%84%100%99%
Visibility 6 mi6 mi6 mi6 mi6 mi6 mi6 mi6 mi6 mi6 mi6 mi6 mi6 mi6 mi6 mi6 mi6 mi6 mi6 mi6 mi6 mi6 mi6 mi6 mi6 mi6 mi5 mi6 mi6 mi6 mi6 mi6 mi6 mi5 mi6 mi6 mi6 mi6 mi6 mi6 mi6 mi6 mi6 mi6 mi6 mi6 mi6 mi6 mi
Precipitation 61%69%66%61%0%0%0%0%0%0%0%0%0%0%0%0%38%65%66%84%91%95%92%100%100%100%100%100%99%100%100%100%100%100%85%85%82%70%70%66%32%24%24%23%22%11%0%0%
Humidity 100%97%95%94%92%88%85%85%88%91%91%91%92%90%91%90%91%93%93%94%94%94%95%95%95%95%96%96%96%96%96%97%97%98%98%97%94%92%90%89%87%89%87%85%84%83%82%81%
Dew Point 50°F51°F51°F53°F54°F56°F57°F57°F57°F56°F56°F55°F54°F53°F53°F52°F52°F52°F52°F52°F52°F53°F53°F53°F55°F55°F56°F57°F57°F59°F59°F59°F59°F59°F59°F59°F56°F53°F50°F48°F48°F46°F46°F46°F46°F46°F46°F46°F
Pressure 30.15"30.15"30.12"30.12"30.09"30.06"30.03"30.03"30"30.03"30.06"30.06"30.06"30.06"30.03"30.03"30"29.97"29.94"29.91"29.91"29.91"29.88"29.88"29.88"29.85"29.83"29.8"29.77"29.71"29.71"29.68"29.68"29.68"29.71"29.71"29.68"29.68"29.68"29.68"29.68"29.71"29.71"29.71"29.74"29.77"29.77"29.8"
Wind Speed 7.4 mph8.5 mph8.6 mph7.9 mph8.8 mph9.3 mph9.4 mph8.4 mph7.9 mph7.8 mph8.9 mph9.9 mph10.7 mph11.4 mph10.5 mph11.2 mph10.7 mph11.7 mph13.1 mph11.2 mph10.5 mph9.5 mph11 mph11 mph10.3 mph9.6 mph8.1 mph7.1 mph8.6 mph7.2 mph5.3 mph4.2 mph2 mph2.3 mph1 mph5.9 mph13 mph16.6 mph19.6 mph19.6 mph15.3 mph18 mph19.9 mph20 mph19.4 mph20 mph19 mph18.8 mph
Wind
Direction
31°
NNE
28°
NNE
37°
NE
44°
NE
49°
NE
49°
NE
51°
NE
45°
NE
36°
NE
41°
NE
50°
NE
52°
NE
56°
NE
59°
ENE
56°
NE
46°
NE
37°
NE
51°
NE
61°
ENE
66°
ENE
71°
ENE
69°
ENE
66°
ENE
68°
ENE
81°
E
84°
E
69°
ENE
62°
ENE
66°
ENE
79°
E
74°
ENE
57°
ENE

N

N
264°
W
235°
SW
246°
WSW
247°
WSW
252°
WSW
262°
W
267°
W
261°
W
266°
W
273°
W
275°
W
283°
WNW
289°
WNW
292°
WNW

Daily Forecast

Date High Low Precip. Humidity
Today
Oct 27

Rain
59 °F
49 °F
89%
97%
Wednesday
Oct 28

Rain
60 °F
54 °F
100%
96%
Thursday
Oct 29

Clouds
52 °F
46 °F
66%
71%
Friday
Oct 30

Clear
64 °F
41 °F
0%
49%
Saturday
Oct 31

Clouds
66 °F
43 °F
0%
53%
Sunday
Nov 1

Clear
62 °F
47 °F
0%
48%
Monday
Nov 2

Clear
62 °F
40 °F
0%
42%
Tuesday
Nov 3

Clear
66 °F
42 °F
0%
40%
Wednesday
Nov 4

Clouds
67 °F
46 °F
0%
46%
Thursday
Nov 5

Clouds
69 °F
51 °F
10%
66%
Friday
Nov 6

Clouds
68 °F
56 °F
10%
68%
Saturday
Nov 7

Clouds
59 °F
50 °F
0%
78%
Sunday
Nov 8

Clear
66 °F
46 °F
0%
59%
Monday
Nov 9

Clouds
64 °F
48 °F
3%
55%
Tuesday
Nov 10

Rain
56 °F
45 °F
60%
81%
Wednesday
Nov 11

Clear
57 °F
38 °F
0%
55%


Temperature 8-14 Day Outlook



Precipitation 8-14 Day Outlook




Quick Links
Lake Cypress Springs News
Lake Cypress Springs Photos
Lake Cypress Springs Videos




About Us
Contact Us
Site Map
Search Site
Advertise With Us
   
Cypress-Springs.LakesOnline.com
THE LAKE CYPRESS SPRINGS WEBSITE

Copyright 2020, Lakes Online
Privacy    |    Legal